McCook, NE

7:13 AM CDT on October 01, 2016 (GMT -0500)
McCook Municipal

Weather History for KMCK - January, 2012

Change the Weather History Date:

Wednesday, January 4, 2012

  Actual Average Record
Temperature  
Mean Temperature 41 °F 27 °F  
Max Temperature 60 °F 40 °F 70 °F (1956)
Min Temperature 22 °F 14 °F -21 °F (1959)
Degree Days  
Heating Degree Days 24    
Moisture  
Dew Point 23 °F    
Average Humidity 56    
Maximum Humidity 88    
Minimum Humidity 25    
Precipitation  
Precipitation 0.00 in 0.02 in 0.18 in (2005)
Month to date precipitation 0.00 0.07  
Year to date precipitation 0.00 0.07  
Sea Level Pressure  
Sea Level Pressure 30.31 in    
Wind  
Wind Speed 10 mph (West)    
Max Wind Speed 14 mph    
Max Gust Speed -    
Visibility 10 miles    
Events      
T = Trace of Precipitation, MM = Missing Value Source: NWS Daily Summary

Daily Weather History Graph

Daily Weather History Graph

Search for Another Location

Airport or City:

Trip Planner

Search our weather history database for the weather conditions in past years. The results will help you decide how hot, cold, wet, or windy it might be!

Date:

Astronomy

Jan. 04, 2012 Rise Set
Actual Time 8:05 AM CST 5:29 PM CST
Civil Twilight 7:34 AM CST 5:59 PM CST
Nautical Twilight 7:00 AM CST 6:33 PM CST
Astronomical Twilight 6:27 AM CST 7:06 PM CST
Moon 1:53 PM CST (1/4) 3:55 AM CST (1/4)
Length of Visible Light 10h 25m
Length of Day
9h 24m
Waxing Gibbous, 81% of the Moon is Illuminated
Jan 4
Waxing Gibbous
Jan 9
Full
Jan 16
Last Quarter
Jan 23
New
Jan 30
First Quarter

Hourly Weather History & Observations

Time (CST) Temp. Windchill Dew Point Humidity Pressure Visibility Wind Dir Wind Speed Gust Speed Precip Events Conditions
12:53 AM 36.0 °F 27.1 °F 24.1 °F 62% 30.29 in 10.0 mi WNW 13.8 mph - N/A   Clear
1:53 AM 33.8 °F 24.3 °F 24.8 °F 70% 30.28 in 10.0 mi NW 13.8 mph - N/A   Clear
2:53 AM 30.9 °F 22.8 °F 23.0 °F 72% 30.32 in 10.0 mi West 9.2 mph - N/A   Clear
3:53 AM 28.0 °F 20.0 °F 21.9 °F 78% 30.34 in 10.0 mi West 8.1 mph - N/A   Clear
4:53 AM 30.0 °F 21.1 °F 23.0 °F 75% 30.35 in 10.0 mi West 10.4 mph - N/A   Clear
6:53 AM 28.0 °F 19.3 °F 21.9 °F 78% 30.41 in 10.0 mi West 9.2 mph - N/A   Clear
7:53 AM 23.0 °F 17.0 °F 19.9 °F 88% 30.42 in 10.0 mi WSW 4.6 mph - N/A   Clear
8:53 AM 28.9 °F 19.2 °F 21.9 °F 75% 30.43 in 10.0 mi West 11.5 mph - N/A   Unknown
9:53 AM 33.8 °F 25.3 °F 24.8 °F 70% 30.37 in 10.0 mi West 11.5 mph - N/A   Clear
10:53 AM 39.0 °F 31.8 °F 25.0 °F 57% 30.43 in 10.0 mi West 11.5 mph - N/A   Clear
11:53 AM 45.0 °F 40.1 °F 25.0 °F 46% 30.38 in 10.0 mi West 9.2 mph - N/A   Clear
12:53 PM 51.1 °F - 25.0 °F 36% 30.32 in 10.0 mi WSW 13.8 mph - N/A   Clear
1:53 PM - - - N/A% 30.24 in - North - - N/A   Unknown
2:53 PM 57.9 °F - 24.1 °F 27% 30.23 in 10.0 mi WSW 13.8 mph - N/A   Clear
3:53 PM 59.0 °F - 23.0 °F 25% 30.23 in 10.0 mi West 10.4 mph - N/A   Clear
4:53 PM 57.0 °F - 25.0 °F 29% 30.23 in 10.0 mi WSW 8.1 mph - N/A   Clear
5:53 PM 48.9 °F - 21.9 °F 35% 30.25 in 10.0 mi WNW 9.2 mph - N/A   Clear
6:53 PM 48.0 °F - 19.9 °F 33% 30.25 in 10.0 mi West 4.6 mph - N/A   Clear
7:53 PM 37.9 °F 33.5 °F 19.9 °F 48% 30.28 in 10.0 mi West 5.8 mph - N/A   Clear
8:53 PM 37.0 °F 30.4 °F 21.0 °F 52% 30.28 in 10.0 mi WNW 9.2 mph - N/A   Clear
9:53 PM 37.0 °F 29.8 °F 21.0 °F 52% 30.27 in 10.0 mi West 10.4 mph - N/A   Clear
10:53 PM 33.1 °F 26.9 °F 21.0 °F 61% 30.27 in 10.0 mi WSW 6.9 mph - N/A   Clear
11:53 PM 32.0 °F 28.7 °F 21.0 °F 64% 30.25 in 10.0 mi West 3.5 mph - N/A   Clear